Total_Precipitation_Accumulation
0.01 0.03 0.05 0.06 0.07 0.14 0.19 0.18 0.14 0.14 0.19 0.32 0.66 0.99 1.25 1.36 1.32 1.34 1.20 1.02 0.84 0.70
0.00 0.01 0.02 0.04 0.06 0.07 0.08 0.10 0.11 0.13 0.12 0.12 0.19 0.35 0.53 0.73 0.86 1.02 1.21 1.14 1.16 0.94
0.01 0.02 0.04 0.07 0.08 0.09 0.10 0.16 0.17 0.20 0.19 0.16 0.21 0.30 0.37 0.36 0.31 0.31 0.48 0.78 0.97 1.00
0.09 0.14 0.17 0.12 0.09 0.14 0.17 0.22 0.26 0.26 0.25 0.26 0.30 0.38 0.45 0.44 0.38 0.32 0.28 0.43 0.66 0.82
0.28 0.22 0.11 0.05 0.06 0.12 0.16 0.24 0.25 0.23 0.29 0.33 0.34 0.38 0.45 0.48 0.46 0.37 0.30 0.27 0.45 0.74
0.34 0.12 0.04 0.03 0.04 0.10 0.23 0.28 0.25 0.25 0.29 0.29 0.30 0.32 0.35 0.41 0.41 0.42 0.43 0.40 0.29 0.31
0.08 0.02 0.03 0.04 0.04 0.06 0.17 0.25 0.28 0.27 0.31 0.37 0.36 0.28 0.33 0.45 0.54 0.61 0.52 0.46 0.43 0.26
0.16 0.04 0.07 0.11 0.10 0.12 0.13 0.19 0.29 0.34 0.27 0.30 0.41 0.48 0.44 0.38 0.43 0.52 0.57 0.62 0.55 0.39
0.04 0.06 0.13 0.21 0.25 0.21 0.22 0.17 0.18 0.31 0.37 0.38 0.40 0.49 0.49 0.51 0.48 0.44 0.45 0.43 0.41 0.45
0.04 0.06 0.13 0.24 0.35 0.43 0.38 0.34 0.36 0.32 0.31 0.37 0.32 0.40 0.44 0.46 0.53 0.60 0.55 0.47 0.50 0.50
0.06 0.13 0.20 0.29 0.37 0.47 0.51 0.48 0.50 0.53 0.43 0.31 0.33 0.41 0.33 0.47 0.55 0.62 0.65 0.65 0.54 0.49
0.17 0.19 0.23 0.29 0.32 0.35 0.43 0.50 0.50 0.46 0.43 0.42 0.44 0.47 0.42 0.43 0.52 0.62 0.66 0.63 0.64 0.55
0.20 0.26 0.27 0.24 0.27 0.33 0.34 0.40 0.42 0.39 0.35 0.46 0.51 0.57 0.41 0.45 0.46 0.52 0.60 0.64 0.68 0.68
0.25 0.30 0.30 0.27 0.28 0.30 0.35 0.38 0.41 0.40 0.40 0.35 0.36 0.43 0.40 0.35 0.33 0.35 0.44 0.55 0.55 0.62